sim
Sign-in with your pilot id or email,
or register
Callsign
Passwort

Schedule Details

Flight Number: RYR1584 (1)
Departure: Leeds Bradford Airport (EGNM) at 12:45
Arrival: Fuerteventura Airport (GCFV) at 17:10
Route: Ryanair Passenger Schedule. Enter filed route here before submitting Pirep.

Weather Information
Getting current METAR information for EGNM 231150Z 17008KT 140V220 9999 FEW036 25/17 Q1018
Getting current METAR information for GCFV 231200Z 05015KT CAVOK 24/19 Q1017

Schedule Frequency

Route Map